Regional Weather Roundup
Issued by NWS Newport/Morehead, NC

Home | Current Version | Previous Version | Text Only | Print | Product List | Glossary On
Versions: 1 2 3 4 5 6 7 8 9 10 11 12 13 14 15 16 17 18 19 20 21 22 23 24 25 26 27 28 29 30 31 32 33 34 35 36 37 38 39 40 41 42 43 44 45 46 47 48 49 50
000
ASUS42 KMHX 230022
RWRMHX
WEATHER ROUNDUP FOR EASTERN NORTH CAROLINA
NATIONAL WEATHER SERVICE NEWPORT/MOREHEAD CITY NC
700 PM EST MON DEC 22 2014

NOTE: "FAIR" INDICATES FEW OR NO CLOUDS BELOW 12,000 FEET
WITH NO SIGNIFICANT WEATHER AND/OR OBSTRUCTIONS TO VISIBILITY

NCZ015>017-031-032-045>047-102-103-230100-
NORTH COAST

CITY           SKY/WX    TMP DP  RH WIND       PRES   REMARKS
EDENTON        CLOUDY    47  47  99 N10       30.01S FOG
ELIZABETH CITY CLOUDY    56  51  84 N10       30.00R
KITTY HAWK     FOG       54  54 100 NE5       29.95S VSB<1/4
MANTEO         CLOUDY    51  51 100 CALM      29.97R FOG

$$

NCZ045>047-081-094-103-104-230100-
CENTRAL COAST

CITY           SKY/WX    TMP DP  RH WIND       PRES   REMARKS
FRISCO         CLOUDY    50  50 100 W8        29.97R FOG
SWANQUARTER      N/A     52 N/A N/A NW9       29.94F

$$

NCZ095-097-098-100-101-230100-
SOUTHERN COAST

CITY           SKY/WX    TMP DP  RH WIND       PRES   REMARKS
BEAUFORT       CLOUDY    50  49  96 NW8       30.01R FOG
CEDAR ISLAND     N/A     50 N/A N/A SW6       30.03S
JACKSONVILLE   CLOUDY    46  45  96 N7        30.02S FOG
PINEY ISLAND   FOG       52  49  89 W10       30.02R VSB 1/2
WILMINGTON     CLOUDY    46  45  96 N5        30.02R


$$

NCZ011>013-027>030-043-044-078>080-089-090>093-098-230100-
COASTAL PLAIN

CITY           SKY/WX    TMP DP  RH WIND       PRES   REMARKS
AHOSKIE        CLOUDY    40  39  96 N9        30.06S FOG
CLINTON        DRIZZLE   41  41 100 N5        30.04F
ELIZABETHTOWN  CLOUDY    42  42 100 N3        30.06R FOG
GOLDSBORO      CLOUDY    41  41 100 NW7       30.03S FOG
GREENVILLE     CLOUDY    43  43 100 NW5       30.07S FOG
HAVELOCK       CLOUDY    49  47  93 NW12      30.02R FOG
KENANSVILLE    CLOUDY    42  41  99 N6        30.04F FOG
KINSTON        CLOUDY    43  43 100 NW8       30.06R FOG
NEW BERN       CLOUDY    48  45  89 NW10      30.03F FOG
RICHLANDS      CLOUDY    45  39  81 N8        30.03R
ROCKY MOUNT    CLOUDY    41  39  93 N7        30.07R FOG
WASHINGTON     CLOUDY    44  44  99 NW5       30.04R FOG
WHITEVILLE     CLOUDY    44  42  96 N5        30.03R FOG

$$

AMZ130-135-150-152-154-156-158-170-250-252-270-ANZ085-086-088-633-658-670-230100-
MARINE OBSERVATIONS

STATION/POSITION TIME  TEMP    WIND        PRES    WAVE   SWELL
                       AIR SEA DIR/SP/G            HT/PER HT/PER
                 (UTC) (F)     (DEG/KT/KT) (MB)    (FT/S) (FT/S)
CHESAPEAKE LIGHT 0000   54      80/ 29/ 33 1015.7
64 E VA BEACH    0000   60 55   90/  8/ 10 1014.7   11/ 8  11/ 8
DUCK             0000   52 46   60/ 12/ 13 1014.1
2 E DUCK         0000      47                N/A     8/ 9   2/11
10 NE DUCK       0000      51                N/A     9/ 8   2/11
OREGON INLET     0000   51 49  300/  7/  8 1014.8
13E OREGON INLT  0000      52                N/A     9/ 8   2/11
HATTERAS CG      0000   52 54  290/  5/  6 1014.8
DIAMOND BUOY     0000   61                 1014.1    7/ 9
17 S OCRACOKE    NOT AVBL
CAPE LOOKOUT     0000   51     310/  7/  9 1016.1
BEAUFORT LAB     0000   49 51  350/  5/ 10 1014.9
30 SE NEW RIVER  0000   53 60   40/  4/  6 1016.3    4/ 7   3/ 7
5 SE WRIGHTSVLE  NOT AVBL
225 S CAPE HAT   NOT AVBL
41 SE CHARLESTON 0000   65 73   60/  8/ 12 1013.9    4/ 8   3/ 8

$$


USA.gov is the U.S. government's official web portal to all federal, state and local government web resources and services.